Wind_Speed
4 5 6 6 7 7 8 8 9 9 10 11 12 13 13 13 13 13 13 13 14 15 15 15 16 16 16 16 16 17 16 16 16 16 16 16 15 15 15 15 15 15 15
6 6 7 8 8 9 9 9 10 10 11 12 13 14 15 14 14 14 14 15 15 16 17 17 17 17 17 17 17 17 18 17 17 17 17 17 16 16 16 16 16 16 16
8 9 9 9 10 10 11 11 12 12 13 14 14 15 15 15 16 16 16 16 17 17 18 18 18 18 19 19 18 17 18 18 18 18 18 18 18 17 17 17 16 16 16
11 11 11 11 12 13 13 13 14 15 16 16 16 16 16 17 17 17 18 19 19 19 19 20 19 20 20 20 19 19 19 20 20 19 19 19 19 18 18 17 17 16 16
13 13 13 13 14 15 15 15 16 17 18 18 18 18 19 20 20 19 20 21 21 21 21 21 21 21 21 21 21 21 20 21 20 20 20 20 19 19 18 18 17 17 17
14 15 16 16 16 16 16 17 18 19 19 20 20 21 21 22 22 22 23 23 23 23 24 23 23 23 22 22 22 22 21 22 22 21 21 20 19 19 19 19 18 18 17
17 17 18 18 19 19 19 20 20 21 21 21 22 23 24 24 24 24 24 24 25 25 26 26 26 25 24 24 23 22 23 23 23 22 22 21 21 21 20 19 18 18 18
20 20 20 20 21 22 22 22 22 23 24 24 25 26 26 26 25 25 25 26 26 26 26 26 26 26 26 25 24 24 24 24 24 24 23 23 22 22 21 21 20 20 20
22 21 21 22 22 23 23 24 25 25 27 27 27 28 28 28 27 27 27 27 27 26 27 27 27 27 27 26 25 25 25 25 25 24 24 23 23 23 23 22 22 23 22
24 24 25 26 26 26 25 26 27 28 28 29 29 29 29 29 29 29 29 28 28 27 28 28 28 28 27 26 26 26 26 26 26 26 25 25 24 24 25 25 24 25 25
27 27 28 29 29 29 29 29 30 31 31 32 32 32 31 30 30 30 29 29 29 29 29 29 28 28 27 27 27 27 27 27 27 27 27 26 26 26 27 27 27 26 26
31 31 32 32 32 32 32 32 32 32 33 33 33 33 33 32 32 31 30 30 30 31 31 30 29 29 28 28 29 28 28 28 28 28 28 28 27 27 27 28 28 27 27
33 33 33 34 34 33 33 34 34 33 33 34 34 34 33 33 33 32 31 31 31 31 31 30 30 30 30 30 30 30 30 30 29 29 29 28 28 28 28 28 28 28 28
34 34 35 35 34 35 35 35 35 34 34 34 35 34 33 34 34 33 33 32 32 32 32 33 32 32 32 32 32 31 31 31 30 30 29 28 28 29 29 29 29 30 29
36 36 35 35 36 36 36 36 35 35 34 35 34 34 34 34 34 34 34 33 33 34 35 35 35 34 34 34 33 33 33 32 31 30 29 29 29 29 29 30 30 30 30
37 37 36 37 37 36 36 36 35 35 35 34 34 34 34 34 34 34 34 34 34 35 36 36 35 35 35 35 34 33 33 33 32 31 30 30 30 30 31 31 31 31 30
38 37 37 37 37 37 36 35 35 35 34 34 34 34 35 35 34 34 33 33 34 36 37 36 36 36 35 34 34 33 33 33 32 31 31 31 31 31 32 32 32 31 31
38 38 38 37 37 36 35 35 35 34 34 34 35 34 34 34 34 34 35 35 35 36 36 36 35 35 35 34 33 33 32 32 32 32 32 32 32 32 33 33 32 32 31
37 37 37 37 37 36 35 35 35 35 35 34 34 34 34 34 34 35 35 35 35 35 35 35 35 35 35 34 33 32 32 32 33 32 32 32 33 33 33 33 33 32 32
37 37 36 36 36 35 35 36 36 35 35 34 34 34 34 34 35 35 35 35 35 35 35 34 35 35 34 34 33 33 33 33 33 32 32 33 33 33 33 33 33 33 33
35 34 34 34 34 35 36 36 37 36 36 36 35 35 35 35 36 36 36 35 35 36 35 34 34 33 33 33 33 33 33 33 32 33 33 33 33 32 32 32 32 32 32
33 32 33 34 35 35 36 36 36 36 37 37 37 36 36 37 37 36 36 36 36 35 34 33 32 31 32 32 32 33 33 32 31 32 32 32 32 32 31 31 31 31 31
32 33 33 34 34 35 35 35 35 36 37 36 37 36 36 36 36 36 36 35 35 34 34 33 32 31 31 32 32 32 32 31 32 32 32 32 32 32 31 32 32 32 31
31 31 32 33 34 34 34 34 35 35 35 35 35 36 36 35 35 35 34 33 33 33 33 33 32 32 32 32 31 31 32 32 32 33 33 33 33 32 31 31 31 31 31
29 29 30 31 32 33 33 33 33 33 34 34 34 34 34 35 35 34 33 32 32 32 32 32 31 31 31 31 31 31 32 32 33 33 33 32 32 31 31 31 30 30 30
28 28 29 30 30 30 30 31 31 32 33 32 32 33 33 33 33 32 31 31 31 30 31 31 31 31 31 31 31 31 32 32 32 33 32 32 31 31 30 30 30 30 30
Wind_Direction
308 316 321 322 323 325 327 326 327 327 329 329 325 322 321 317 314 312 312 311 311 311 312 310 309 309 310 311 312 312 312 310 308 307 305 302 302 301 300 298 296 294 293
292 301 306 309 313 315 317 318 317 317 318 318 319 320 320 317 312 308 307 306 307 308 309 308 307 307 309 310 310 309 308 307 306 306 304 300 298 298 299 297 295 293 292
286 291 294 298 303 305 306 309 311 312 313 311 315 318 317 313 308 304 303 303 303 302 304 306 304 307 309 308 307 308 307 307 305 303 301 299 296 296 297 294 292 290 291
279 284 290 294 295 296 297 301 303 306 311 309 308 309 309 308 306 304 305 303 302 303 302 303 304 307 308 308 306 306 306 306 303 302 299 299 297 296 297 295 292 290 290
275 282 286 288 291 295 297 298 300 302 306 308 308 306 306 304 301 301 302 303 302 299 299 299 301 303 304 304 304 304 303 304 305 303 300 297 297 295 294 294 292 290 289
273 279 282 285 288 290 291 293 295 298 301 303 305 304 302 302 298 297 300 301 301 299 300 298 298 298 300 301 301 301 301 302 302 303 302 298 298 295 294 293 291 290 288
271 274 279 282 284 285 287 288 290 294 295 297 298 299 301 302 299 297 297 300 299 299 299 297 297 299 296 297 296 297 297 298 299 299 298 297 297 296 294 292 290 289 287
277 276 276 279 281 283 286 289 291 293 295 295 296 299 300 300 297 297 296 299 299 297 297 297 298 298 295 294 293 295 295 295 296 294 293 293 293 293 292 290 288 286 285
276 277 277 280 283 286 288 289 290 291 292 296 297 301 301 299 296 296 295 297 298 296 296 297 297 297 296 293 293 293 292 291 291 290 288 289 289 289 289 287 287 286 284
275 276 280 282 285 288 287 288 290 292 293 294 295 298 300 299 297 294 294 295 296 296 296 296 296 296 294 294 293 292 291 290 289 288 286 285 285 285 285 285 284 285 284
275 277 280 283 285 287 286 287 290 291 291 291 293 296 297 297 297 296 294 293 294 294 295 295 295 294 292 292 292 292 291 290 289 288 286 284 283 283 283 283 283 284 283
275 276 279 282 283 284 285 287 288 290 291 291 294 295 295 295 294 295 295 293 292 292 293 293 292 291 289 290 290 290 291 290 289 288 286 284 283 282 280 281 282 282 281
274 275 278 281 282 284 284 286 287 289 291 292 293 293 292 292 292 293 293 291 290 290 290 289 289 288 287 287 288 287 288 288 288 287 286 283 282 281 280 281 281 281 282
273 274 277 279 281 283 285 286 287 288 289 290 290 290 290 291 293 294 292 290 289 288 287 287 287 286 286 286 286 286 286 286 286 285 284 283 281 280 280 280 280 280 280
274 275 277 277 279 281 283 284 285 287 288 289 290 289 290 290 292 294 294 291 290 290 289 287 286 286 285 285 284 285 285 285 285 284 282 281 281 281 280 281 281 280 279
274 274 276 278 279 280 282 283 284 286 288 289 289 290 290 291 291 292 293 291 289 289 288 287 286 285 285 285 284 284 285 285 284 282 281 281 282 282 282 281 280 280 280
272 273 275 276 276 278 281 283 284 285 286 287 289 289 290 291 291 291 291 291 290 288 288 287 286 285 285 284 283 282 282 282 283 283 281 280 281 281 281 280 279 279 279
272 273 274 274 276 278 280 281 282 283 284 286 287 289 290 291 290 290 291 291 292 291 289 288 287 286 285 284 283 282 281 281 281 281 281 281 280 281 281 281 280 278 277
272 273 273 274 275 277 278 280 282 283 284 285 286 287 289 289 289 290 291 292 293 293 290 287 285 286 286 284 283 281 281 281 281 281 280 280 281 282 282 281 280 278 277
272 272 272 273 275 276 277 279 282 283 283 284 286 287 288 288 289 289 290 292 293 294 292 287 286 286 284 283 283 282 281 281 280 280 280 280 281 281 281 280 280 279 277
274 274 273 273 275 276 277 279 281 281 282 283 285 286 286 287 287 287 288 290 292 293 292 290 288 286 285 284 283 282 280 279 278 278 279 280 280 280 280 280 280 279 277
272 272 274 276 277 278 278 279 280 281 282 283 284 284 285 286 286 287 288 289 290 290 291 290 287 285 284 285 284 282 280 278 278 279 279 279 279 279 279 279 279 279 277
274 275 276 277 277 278 279 279 280 281 282 282 283 283 284 285 287 287 288 288 289 290 290 290 289 288 286 286 286 283 280 278 278 279 279 279 279 279 278 278 278 278 276
276 277 277 277 277 278 280 281 281 281 281 282 282 283 284 285 287 288 287 286 288 289 290 290 290 289 289 288 286 284 283 281 279 279 279 279 279 278 277 278 278 277 276
278 279 279 280 280 280 281 282 282 283 284 284 284 284 284 284 285 286 286 286 288 289 290 290 291 290 289 288 286 284 283 282 281 280 279 279 279 278 277 277 277 277 277
282 283 284 283 282 282 281 282 284 285 285 285 285 284 284 284 284 284 286 286 288 289 289 290 291 291 290 288 286 286 285 283 283 282 281 280 279 278 278 278 277 276 275
Height
5903 5902 5901 5901 5900 5898 5897 5896 5894 5892 5891 5889 5888 5886 5884 5882 5881 5879 5877 5875 5874 5872 5870 5868 5866 5863 5861 5859 5857 5855 5853 5851 5849 5847 5844 5842 5840 5838 5836 5835 5833 5831 5829
5901 5900 5899 5898 5897 5896 5895 5893 5892 5890 5888 5886 5885 5883 5881 5879 5877 5876 5874 5872 5870 5868 5866 5864 5862 5860 5858 5855 5853 5851 5848 5846 5845 5843 5840 5838 5836 5834 5832 5830 5829 5827 5825
5898 5898 5897 5895 5894 5893 5892 5890 5889 5887 5885 5883 5881 5880 5877 5875 5873 5871 5869 5868 5866 5864 5862 5860 5857 5855 5853 5851 5848 5846 5844 5842 5840 5838 5836 5834 5832 5829 5827 5826 5824 5822 5821
5895 5894 5893 5892 5890 5889 5888 5887 5885 5883 5881 5879 5877 5876 5874 5871 5869 5867 5865 5863 5861 5859 5857 5855 5853 5851 5848 5846 5844 5842 5839 5837 5835 5832 5831 5829 5827 5825 5823 5821 5819 5818 5816
5891 5890 5889 5888 5886 5885 5884 5882 5881 5879 5878 5875 5873 5871 5869 5867 5865 5862 5860 5858 5856 5854 5852 5850 5848 5845 5843 5841 5839 5836 5834 5832 5829 5827 5825 5823 5821 5819 5818 5816 5814 5813 5811
5886 5885 5884 5883 5882 5880 5879 5878 5876 5875 5873 5871 5869 5866 5864 5862 5859 5857 5855 5853 5851 5848 5846 5844 5842 5839 5837 5835 5833 5831 5829 5826 5824 5822 5820 5818 5815 5814 5812 5811 5809 5808 5806
5880 5879 5879 5878 5877 5875 5874 5873 5871 5869 5867 5865 5863 5861 5858 5855 5853 5851 5849 5846 5844 5842 5840 5838 5835 5833 5831 5828 5826 5824 5822 5820 5818 5816 5814 5812 5810 5809 5807 5805 5804 5802 5801
5874 5873 5873 5872 5871 5869 5868 5867 5865 5863 5861 5859 5857 5855 5852 5849 5847 5844 5842 5840 5837 5835 5833 5831 5828 5826 5823 5821 5819 5817 5815 5813 5811 5809 5808 5806 5804 5802 5801 5799 5798 5796 5795
5867 5867 5866 5865 5864 5863 5862 5860 5859 5857 5855 5852 5850 5848 5845 5842 5840 5837 5835 5833 5830 5828 5825 5823 5821 5818 5816 5814 5812 5810 5808 5806 5804 5802 5800 5799 5797 5796 5794 5792 5791 5790 5788
5860 5860 5859 5858 5857 5856 5855 5853 5852 5850 5848 5845 5843 5840 5837 5834 5831 5829 5827 5824 5822 5820 5817 5815 5813 5811 5809 5806 5804 5802 5800 5798 5796 5794 5792 5791 5789 5788 5787 5785 5784 5782 5781
5852 5852 5851 5850 5850 5849 5847 5846 5844 5842 5840 5837 5835 5832 5829 5826 5824 5821 5818 5816 5814 5811 5809 5806 5804 5802 5800 5798 5796 5794 5792 5790 5788 5786 5784 5783 5781 5780 5779 5777 5776 5775 5773
5844 5843 5843 5842 5841 5840 5839 5837 5835 5833 5831 5829 5827 5824 5821 5818 5815 5812 5810 5807 5805 5802 5800 5798 5796 5794 5792 5790 5787 5785 5783 5781 5779 5777 5775 5774 5772 5771 5770 5768 5767 5765 5764
5835 5834 5834 5833 5832 5831 5829 5828 5826 5824 5822 5820 5818 5815 5812 5809 5806 5803 5801 5798 5795 5793 5791 5789 5787 5785 5783 5781 5778 5776 5774 5772 5770 5768 5766 5765 5763 5762 5760 5759 5758 5757 5756
5825 5825 5824 5823 5822 5821 5819 5818 5817 5815 5813 5811 5808 5806 5803 5800 5797 5794 5791 5788 5786 5783 5781 5779 5777 5775 5773 5771 5769 5767 5765 5763 5761 5759 5757 5756 5754 5753 5752 5750 5749 5748 5747
5816 5815 5814 5813 5812 5811 5809 5808 5806 5805 5803 5801 5799 5796 5793 5790 5788 5785 5782 5779 5776 5774 5771 5769 5767 5765 5763 5761 5759 5757 5755 5753 5751 5749 5747 5746 5744 5743 5742 5741 5739 5738 5737
5805 5805 5804 5803 5802 5801 5799 5798 5796 5795 5793 5791 5788 5786 5783 5781 5778 5775 5772 5769 5766 5763 5760 5758 5756 5754 5752 5750 5748 5746 5744 5742 5740 5738 5737 5735 5734 5733 5732 5731 5729 5728 5727
5794 5794 5793 5792 5792 5790 5789 5788 5786 5785 5783 5780 5778 5776 5773 5771 5768 5765 5762 5759 5756 5753 5749 5747 5744 5742 5741 5739 5737 5735 5734 5732 5730 5728 5727 5725 5724 5723 5722 5720 5719 5718 5717
5783 5782 5782 5782 5781 5780 5779 5777 5776 5774 5773 5770 5768 5766 5763 5760 5758 5755 5752 5748 5745 5742 5738 5736 5734 5732 5730 5728 5726 5724 5722 5721 5719 5718 5717 5715 5714 5712 5711 5710 5709 5708 5707
5771 5771 5771 5770 5770 5769 5768 5767 5765 5764 5762 5760 5757 5755 5752 5750 5747 5744 5741 5738 5735 5731 5728 5725 5723 5721 5719 5717 5715 5713 5712 5710 5709 5707 5706 5705 5704 5702 5701 5699 5698 5697 5696
5760 5759 5759 5759 5757 5757 5756 5755 5754 5752 5750 5748 5746 5744 5742 5739 5736 5733 5730 5727 5724 5721 5717 5714 5712 5710 5708 5706 5704 5702 5701 5699 5698 5697 5695 5694 5693 5691 5690 5689 5687 5686 5685
5749 5748 5748 5748 5746 5746 5745 5744 5743 5741 5739 5737 5735 5733 5731 5728 5726 5723 5719 5716 5713 5710 5707 5704 5701 5699 5697 5695 5693 5691 5689 5688 5687 5686 5685 5683 5682 5680 5679 5678 5676 5675 5674
5737 5737 5737 5736 5736 5735 5734 5732 5731 5729 5727 5726 5724 5722 5719 5716 5714 5711 5708 5705 5702 5699 5696 5693 5690 5688 5687 5684 5682 5680 5678 5677 5676 5675 5674 5672 5671 5669 5668 5667 5666 5665 5663
5726 5726 5726 5725 5724 5724 5722 5721 5719 5718 5716 5713 5711 5709 5707 5705 5702 5699 5697 5694 5692 5689 5686 5683 5680 5678 5676 5673 5671 5669 5667 5667 5666 5664 5663 5661 5660 5659 5657 5656 5655 5654 5653
5716 5716 5715 5714 5713 5712 5711 5709 5707 5705 5703 5701 5699 5697 5695 5693 5690 5688 5685 5683 5681 5678 5676 5673 5670 5668 5665 5663 5661 5658 5657 5656 5654 5653 5651 5650 5648 5647 5646 5645 5644 5642 5642
5706 5705 5704 5703 5702 5702 5700 5698 5696 5694 5692 5689 5687 5685 5682 5680 5678 5676 5674 5672 5670 5667 5665 5662 5660 5657 5655 5652 5650 5648 5646 5644 5643 5641 5640 5638 5637 5636 5635 5634 5633 5632 5631
5697 5696 5695 5693 5692 5691 5689 5687 5685 5683 5680 5678 5675 5673 5671 5669 5666 5664 5662 5660 5659 5657 5654 5652 5649 5647 5644 5642 5640 5638 5636 5634 5632 5630 5629 5627 5626 5625 5624 5623 5622 5621 5620